TimeCST,TemperatureF,Dew PointF,Humidity,Sea Level PressureIn,VisibilityMPH,Wind Direction,Wind SpeedMPH,Gust SpeedMPH,PrecipitationIn,Events,Conditions,WindDirDegrees,DateUTC
12:21 AM,48.2,42.8,82,30.35,9.0,NW,17.3,29.9,N/A,,Overcast,310,2013-11-24 06:21:00
12:53 AM,48.0,43.0,83,30.35,8.0,NW,23.0,27.6,N/A,,Overcast,310,2013-11-24 06:53:00
1:53 AM,48.0,43.0,83,30.32,10.0,NW,24.2,32.2,N/A,,Overcast,310,2013-11-24 07:53:00
2:31 AM,48.2,42.8,82,30.31,10.0,NW,23.0,32.2,N/A,,Overcast,310,2013-11-24 08:31:00
2:53 AM,48.0,43.0,83,30.31,10.0,NW,23.0,29.9,N/A,,Overcast,310,2013-11-24 08:53:00
3:53 AM,48.0,43.0,83,30.30,10.0,NW,20.7,-,N/A,,Overcast,310,2013-11-24 09:53:00
4:53 AM,48.0,43.0,83,30.31,10.0,NW,21.9,29.9,N/A,,Overcast,310,2013-11-24 10:53:00
5:01 AM,48.2,42.8,82,30.31,10.0,NW,21.9,29.9,N/A,,Overcast,310,2013-11-24 11:01:00
5:08 AM,48.2,42.8,82,30.31,10.0,NW,21.9,29.9,N/A,,Overcast,310,2013-11-24 11:08:00
5:17 AM,48.2,42.8,82,30.31,10.0,NW,23.0,29.9,N/A,,Overcast,310,2013-11-24 11:17:00
5:53 AM,46.9,44.1,90,30.32,7.0,NW,23.0,-,N/A,,Overcast,310,2013-11-24 11:53:00
6:53 AM,46.9,44.1,90,30.33,8.0,NW,23.0,31.1,N/A,,Overcast,320,2013-11-24 12:53:00
7:53 AM,48.9,44.1,83,30.34,10.0,NW,21.9,-,N/A,,Overcast,320,2013-11-24 13:53:00
8:44 AM,48.2,44.6,87,30.34,10.0,NW,21.9,-,N/A,,Overcast,320,2013-11-24 14:44:00
8:53 AM,50.0,44.1,80,30.34,10.0,NW,21.9,28.8,N/A,,Overcast,320,2013-11-24 14:53:00
9:06 AM,50.0,44.6,82,30.34,10.0,NW,23.0,31.1,N/A,,Overcast,320,2013-11-24 15:06:00
9:14 AM,50.0,44.6,82,30.34,9.0,NW,23.0,29.9,N/A,,Overcast,320,2013-11-24 15:14:00
9:53 AM,50.0,44.1,80,30.34,9.0,NW,24.2,29.9,N/A,,Overcast,320,2013-11-24 15:53:00
10:53 AM,50.0,45.0,83,30.34,8.0,NW,20.7,25.3,N/A,,Overcast,320,2013-11-24 16:53:00
11:39 AM,51.8,44.6,76,30.33,8.0,NW,16.1,27.6,N/A,,Overcast,320,2013-11-24 17:39:00
11:53 AM,51.1,45.0,80,30.32,8.0,NNW,19.6,-,N/A,,Overcast,330,2013-11-24 17:53:00
12:53 PM,51.1,45.0,80,30.28,8.0,NW,20.7,-,N/A,,Overcast,320,2013-11-24 18:53:00
1:06 PM,51.8,44.6,76,30.27,8.0,NNW,23.0,-,N/A,,Overcast,330,2013-11-24 19:06:00
1:38 PM,51.8,44.6,76,30.27,8.0,NNW,17.3,24.2,N/A,,Overcast,330,2013-11-24 19:38:00
1:50 PM,51.8,44.6,76,30.26,8.0,NNW,18.4,-,N/A,,Overcast,340,2013-11-24 19:50:00
1:53 PM,52.0,45.0,77,30.26,8.0,NNW,17.3,-,N/A,,Overcast,330,2013-11-24 19:53:00
2:53 PM,50.0,44.1,80,30.25,8.0,NNW,19.6,26.5,N/A,,Overcast,330,2013-11-24 20:53:00
3:26 PM,50.0,44.6,82,30.25,8.0,NNW,20.7,-,N/A,,Overcast,330,2013-11-24 21:26:00
3:53 PM,50.0,44.1,80,30.25,8.0,NNW,19.6,-,N/A,,Overcast,330,2013-11-24 21:53:00
4:53 PM,50.0,44.1,80,30.25,8.0,NNW,19.6,26.5,N/A,,Overcast,330,2013-11-24 22:53:00
5:42 PM,48.2,44.6,87,30.25,8.0,NW,20.7,26.5,N/A,,Overcast,320,2013-11-24 23:42:00
5:53 PM,48.9,44.1,83,30.25,8.0,NW,19.6,-,N/A,,Overcast,320,2013-11-24 23:53:00
6:53 PM,48.0,44.1,86,30.24,6.0,NNW,20.7,26.5,N/A,,Overcast,330,2013-11-25 00:53:00
7:53 PM,48.0,45.0,89,30.25,5.0,NNW,18.4,-,N/A,,Overcast,330,2013-11-25 01:53:00
8:53 PM,48.0,45.0,89,30.25,5.0,NW,18.4,24.2,N/A,,Overcast,320,2013-11-25 02:53:00
9:53 PM,46.9,44.1,90,30.24,5.0,NW,20.7,-,N/A,,Overcast,320,2013-11-25 03:53:00
10:53 PM,46.9,44.1,90,30.25,5.0,NW,21.9,28.8,N/A,,Overcast,310,2013-11-25 04:53:00
11:53 PM,46.0,42.1,86,30.21,9.0,NW,24.2,29.9,N/A,,Overcast,320,2013-11-25 05:53:00